Time,TemperatureF,DewpointF,PressureIn,WindDirection,WindDirectionDegrees,WindSpeedMPH,WindSpeedGustMPH,Humidity,HourlyPrecipIn,Conditions,Clouds,dailyrainin,SoftwareType,DateUTC
2013-04-04 00:02:00,40.0,34.0,-100.00,South,190,17.0,29.0,76,0.00,,,0.00,,2013-04-04 05:02:00,
2013-04-04 00:12:00,41.0,34.0,-100.00,SSW,195,22.0,31.0,75,0.00,,,0.00,,2013-04-04 05:12:00,
2013-04-04 00:23:00,41.0,34.0,-100.00,SSW,200,19.0,29.0,75,0.00,,,0.00,,2013-04-04 05:23:00,
2013-04-04 00:32:00,41.0,34.0,-100.00,SSW,200,22.0,29.0,75,0.00,,,0.00,,2013-04-04 05:32:00,
2013-04-04 00:42:00,41.0,34.0,-100.00,South,190,20.0,32.0,74,0.00,,,0.00,,2013-04-04 05:42:00,
2013-04-04 00:52:00,41.0,34.0,-100.00,South,185,21.0,31.0,74,0.00,,,0.00,,2013-04-04 05:52:00,
2013-04-04 01:02:00,41.0,34.0,-100.00,SSW,200,22.0,29.0,74,0.00,,,0.00,,2013-04-04 06:02:00,
2013-04-04 01:12:00,41.0,34.0,-100.00,SSW,205,17.0,28.0,74,0.00,,,0.00,,2013-04-04 06:12:00,
2013-04-04 01:22:00,41.0,34.0,-100.00,SSW,195,18.0,24.0,75,0.00,,,0.00,,2013-04-04 06:22:00,
2013-04-04 01:32:00,41.0,34.0,-100.00,SSW,195,17.0,28.0,75,0.00,,,0.00,,2013-04-04 06:32:00,
2013-04-04 01:42:00,41.0,34.0,-100.00,SW,215,14.0,24.0,75,0.00,,,0.00,,2013-04-04 06:42:00,
2013-04-04 01:52:00,42.0,34.0,-100.00,SW,215,16.0,22.0,73,0.00,,,0.00,,2013-04-04 06:52:00,
2013-04-04 02:02:00,42.0,34.0,-100.00,SSW,205,14.0,22.0,73,0.00,,,0.00,,2013-04-04 07:02:00,
2013-04-04 02:12:00,42.0,34.0,-100.00,SW,215,14.0,21.0,72,0.00,,,0.00,,2013-04-04 07:12:00,
2013-04-04 02:22:00,43.0,34.0,-100.00,SSW,210,17.0,26.0,71,0.00,,,0.00,,2013-04-04 07:22:00,
2013-04-04 02:32:00,43.0,34.0,-100.00,SW,220,17.0,22.0,71,0.00,,,0.00,,2013-04-04 07:32:00,
2013-04-04 02:42:00,43.0,34.0,-100.00,SW,230,13.0,24.0,70,0.00,,,0.00,,2013-04-04 07:42:00,
2013-04-04 02:52:00,43.0,34.0,-100.00,SW,225,16.0,22.0,69,0.00,,,0.00,,2013-04-04 07:52:00,
2013-04-04 03:02:00,43.0,34.0,-100.00,SW,215,12.0,20.0,70,0.00,,,0.00,,2013-04-04 08:02:00,
2013-04-04 03:12:00,42.0,34.0,-100.00,SW,225,11.0,18.0,70,0.00,,,0.00,,2013-04-04 08:12:00,
2013-04-04 03:22:00,42.0,34.0,-100.00,SW,215,15.0,22.0,72,0.00,,,0.00,,2013-04-04 08:22:00,
2013-04-04 03:32:00,41.0,34.0,-100.00,SW,220,12.0,22.0,73,0.00,,,0.00,,2013-04-04 08:32:00,
2013-04-04 03:42:00,41.0,34.0,-100.00,SSW,210,12.0,18.0,74,0.00,,,0.00,,2013-04-04 08:42:00,
2013-04-04 03:52:00,41.0,34.0,-100.00,SW,220,11.0,16.0,75,0.00,,,0.00,,2013-04-04 08:52:00,
2013-04-04 04:02:00,41.0,34.0,-100.00,SSW,210,14.0,19.0,75,0.00,,,0.00,,2013-04-04 09:02:00,
2013-04-04 04:12:00,40.0,34.0,-100.00,SW,215,12.0,18.0,76,0.00,,,0.00,,2013-04-04 09:12:00,
2013-04-04 04:22:00,40.0,34.0,-100.00,SSW,210,11.0,17.0,78,0.00,,,0.00,,2013-04-04 09:22:00,
2013-04-04 04:33:00,40.0,34.0,-100.00,SSW,205,10.0,14.0,78,0.00,,,0.00,,2013-04-04 09:33:00,
2013-04-04 04:43:00,40.0,34.0,-100.00,SSW,205,12.0,14.0,79,0.00,,,0.00,,2013-04-04 09:43:00,
2013-04-04 04:53:00,40.0,34.0,-100.00,SSW,210,11.0,15.0,79,0.00,,,0.00,,2013-04-04 09:53:00,
2013-04-04 05:04:00,40.0,34.0,-100.00,SSW,205,10.0,14.0,79,0.00,,,0.00,,2013-04-04 10:04:00,
2013-04-04 05:12:00,40.0,34.0,-100.00,SW,215,9.0,13.0,80,0.00,,,0.00,,2013-04-04 10:12:00,
2013-04-04 05:23:00,40.0,34.0,-100.00,WSW,240,7.0,11.0,79,0.00,,,0.00,,2013-04-04 10:23:00,
2013-04-04 05:33:00,40.0,34.0,-100.00,WSW,255,7.0,12.0,78,0.00,,,0.00,,2013-04-04 10:33:00,
2013-04-04 05:42:00,39.0,34.0,-100.00,WSW,250,7.0,9.0,80,0.00,,,0.00,,2013-04-04 10:42:00,
2013-04-04 05:53:00,40.0,34.0,-100.00,SW,225,7.0,11.0,80,0.00,,,0.00,,2013-04-04 10:53:00,
2013-04-04 06:02:00,40.0,34.0,-100.00,WSW,255,11.0,13.0,80,0.00,,,0.00,,2013-04-04 11:02:00,
2013-04-04 06:12:00,39.0,36.0,-100.00,West,265,9.0,15.0,83,0.00,,,0.00,,2013-04-04 11:12:00,
2013-04-04 06:22:00,39.0,36.0,-100.00,West,265,7.0,12.0,86,0.00,,,0.00,,2013-04-04 11:22:00,
2013-04-04 06:32:00,38.0,36.0,-100.00,West,275,10.0,12.0,89,0.00,,,0.00,,2013-04-04 11:32:00,
2013-04-04 06:42:00,38.0,36.0,-100.00,WNW,285,10.0,12.0,92,0.00,,,0.00,,2013-04-04 11:42:00,
2013-04-04 06:53:00,37.0,36.0,-100.00,WNW,285,10.0,14.0,94,0.00,,,0.00,,2013-04-04 11:53:00,
2013-04-04 07:02:00,37.0,36.0,-100.00,WNW,290,11.0,13.0,95,0.00,,,0.00,,2013-04-04 12:02:00,
2013-04-04 07:12:00,37.0,36.0,-100.00,WNW,285,11.0,14.0,96,0.00,,,0.00,,2013-04-04 12:12:00,
2013-04-04 07:22:00,36.0,36.0,-100.00,WNW,295,9.0,14.0,97,0.00,,,0.00,,2013-04-04 12:22:00,
2013-04-04 07:32:00,36.0,36.0,-100.00,WNW,295,11.0,12.0,98,0.00,,,0.00,,2013-04-04 12:32:00,
2013-04-04 07:42:00,36.0,36.0,-100.00,WNW,300,9.0,13.0,98,0.00,,,0.00,,2013-04-04 12:42:00,
2013-04-04 07:52:00,36.0,36.0,-100.00,WNW,300,9.0,12.0,97,0.00,,,0.00,,2013-04-04 12:52:00,
2013-04-04 08:02:00,36.0,36.0,-100.00,WNW,300,9.0,12.0,96,0.00,,,0.00,,2013-04-04 13:02:00,
2013-04-04 08:12:00,36.0,36.0,-100.00,NW,310,9.0,11.0,95,0.00,,,0.00,,2013-04-04 13:12:00,
2013-04-04 08:22:00,36.0,36.0,-100.00,NW,315,10.0,12.0,94,0.00,,,0.00,,2013-04-04 13:22:00,
2013-04-04 08:32:00,36.0,36.0,-100.00,NW,305,11.0,14.0,93,0.00,,,0.00,,2013-04-04 13:32:00,
2013-04-04 08:42:00,37.0,36.0,-100.00,NW,315,9.0,12.0,92,0.00,,,0.00,,2013-04-04 13:42:00,
2013-04-04 08:52:00,37.0,34.0,-100.00,NW,305,12.0,13.0,91,0.00,,,0.00,,2013-04-04 13:52:00,
2013-04-04 09:03:00,37.0,36.0,-100.00,NW,310,11.0,14.0,91,0.00,,,0.00,,2013-04-04 14:03:00,
2013-04-04 09:12:00,37.0,34.0,-100.00,NW,310,12.0,14.0,90,0.00,,,0.00,,2013-04-04 14:12:00,
2013-04-04 09:22:00,38.0,36.0,-100.00,NW,310,14.0,17.0,87,0.00,,,0.00,,2013-04-04 14:22:00,
2013-04-04 09:32:00,39.0,36.0,-100.00,NW,315,13.0,17.0,85,0.00,,,0.00,,2013-04-04 14:32:00,
2013-04-04 09:42:00,39.0,34.0,-100.00,NW,315,12.0,16.0,84,0.00,,,0.00,,2013-04-04 14:42:00,
2013-04-04 09:52:00,39.0,34.0,-100.00,NW,315,12.0,15.0,83,0.00,,,0.00,,2013-04-04 14:52:00,
2013-04-04 10:02:00,40.0,36.0,-100.00,NW,320,14.0,17.0,83,0.00,,,0.00,,2013-04-04 15:02:00,
2013-04-04 10:12:00,41.0,36.0,-100.00,NW,325,12.0,17.0,81,0.00,,,0.00,,2013-04-04 15:12:00,
2013-04-04 10:22:00,41.0,36.0,-100.00,NW,320,14.0,18.0,80,0.00,,,0.00,,2013-04-04 15:22:00,
2013-04-04 10:33:00,41.0,36.0,-100.00,NW,305,16.0,21.0,80,0.00,,,0.00,,2013-04-04 15:33:00,
2013-04-04 10:43:00,41.0,36.0,-100.00,NW,315,15.0,19.0,80,0.00,,,0.00,,2013-04-04 15:43:00,
2013-04-04 10:53:00,41.0,36.0,-100.00,NNW,330,12.0,17.0,79,0.00,,,0.00,,2013-04-04 15:53:00,
2013-04-04 11:03:00,41.0,36.0,-100.00,NNW,335,12.0,17.0,78,0.00,,,0.00,,2013-04-04 16:03:00,
2013-04-04 11:12:00,42.0,36.0,-100.00,NNW,335,13.0,17.0,79,0.00,,,0.00,,2013-04-04 16:12:00,
2013-04-04 11:23:00,43.0,37.0,-100.00,NNW,330,12.0,16.0,79,0.00,,,0.00,,2013-04-04 16:23:00,
2013-04-04 11:32:00,43.0,36.0,-100.00,NW,325,12.0,19.0,77,0.00,,,0.00,,2013-04-04 16:32:00,
2013-04-04 11:42:00,43.0,36.0,-100.00,NNW,330,12.0,17.0,77,0.00,,,0.00,,2013-04-04 16:42:00,
2013-04-04 11:53:00,42.0,36.0,-100.00,NW,315,14.0,17.0,76,0.00,,,0.00,,2013-04-04 16:53:00,
2013-04-04 12:03:00,44.0,37.0,-100.00,NW,325,12.0,19.0,76,0.00,,,0.00,,2013-04-04 17:03:00,
2013-04-04 12:13:00,44.0,37.0,-100.00,NNW,335,12.0,19.0,75,0.00,,,0.00,,2013-04-04 17:13:00,
2013-04-04 12:22:00,44.0,37.0,-100.00,NNW,330,13.0,19.0,74,0.00,,,0.00,,2013-04-04 17:22:00,
2013-04-04 12:33:00,44.0,36.0,-100.00,NNW,345,16.0,20.0,70,0.00,,,0.00,,2013-04-04 17:33:00,
2013-04-04 12:42:00,45.0,36.0,-100.00,North,0,13.0,19.0,67,0.00,,,0.00,,2013-04-04 17:42:00,
2013-04-04 12:52:00,45.0,36.0,-100.00,NNW,345,12.0,19.0,67,0.00,,,0.00,,2013-04-04 17:52:00,
2013-04-04 13:02:00,45.0,36.0,-100.00,NNW,340,14.0,17.0,67,0.00,,,0.00,,2013-04-04 18:02:00,
2013-04-04 13:12:00,45.0,36.0,-100.00,NNW,330,12.0,17.0,66,0.00,,,0.00,,2013-04-04 18:12:00,
2013-04-04 13:22:00,45.0,34.0,-100.00,NNW,335,13.0,19.0,64,0.00,,,0.00,,2013-04-04 18:22:00,
2013-04-04 13:32:00,46.0,34.0,-100.00,NNW,340,11.0,18.0,63,0.00,,,0.00,,2013-04-04 18:32:00,
2013-04-04 13:43:00,46.0,34.0,-100.00,North,350,12.0,20.0,62,0.00,,,0.00,,2013-04-04 18:43:00,
2013-04-04 13:52:00,46.0,34.0,-100.00,NNW,345,11.0,18.0,63,0.00,,,0.00,,2013-04-04 18:52:00,
2013-04-04 14:02:00,46.0,34.0,-100.00,NW,315,14.0,17.0,61,0.00,,,0.00,,2013-04-04 19:02:00,
2013-04-04 14:12:00,46.0,34.0,-100.00,NNW,330,13.0,20.0,59,0.00,,,0.00,,2013-04-04 19:12:00,
2013-04-04 14:22:00,47.0,34.0,-100.00,NW,325,13.0,16.0,59,0.00,,,0.00,,2013-04-04 19:22:00,
2013-04-04 14:32:00,47.0,34.0,-100.00,NW,315,12.0,21.0,61,0.00,,,0.00,,2013-04-04 19:32:00,
2013-04-04 14:42:00,47.0,36.0,-100.00,NNW,335,13.0,17.0,60,0.00,,,0.00,,2013-04-04 19:42:00,
2013-04-04 14:52:00,47.0,34.0,-100.00,NNW,340,14.0,23.0,58,0.00,,,0.00,,2013-04-04 19:52:00,
2013-04-04 15:03:00,47.0,34.0,-100.00,NNW,335,12.0,23.0,58,0.00,,,0.00,,2013-04-04 20:03:00,
2013-04-04 15:12:00,47.0,34.0,-100.00,NNW,330,19.0,24.0,57,0.00,,,0.00,,2013-04-04 20:12:00,
2013-04-04 15:22:00,47.0,34.0,-100.00,NNW,340,18.0,24.0,59,0.00,,,0.00,,2013-04-04 20:22:00,
2013-04-04 15:32:00,46.0,32.0,-100.00,NNW,330,19.0,24.0,58,0.00,,,0.00,,2013-04-04 20:32:00,
2013-04-04 15:42:00,46.0,32.0,-100.00,NNW,330,18.0,22.0,56,0.00,,,0.00,,2013-04-04 20:42:00,
2013-04-04 15:52:00,47.0,34.0,-100.00,NNW,345,16.0,21.0,59,0.00,,,0.00,,2013-04-04 20:52:00,
2013-04-04 16:02:00,46.0,32.0,-100.00,NNW,330,16.0,21.0,56,0.00,,,0.00,,2013-04-04 21:02:00,
2013-04-04 16:12:00,47.0,32.0,-100.00,NW,320,13.0,22.0,57,0.00,,,0.00,,2013-04-04 21:12:00,
2013-04-04 16:22:00,46.0,30.0,-100.00,NNW,330,17.0,24.0,55,0.00,,,0.00,,2013-04-04 21:22:00,
2013-04-04 16:32:00,46.0,30.0,-100.00,NW,325,16.0,21.0,54,0.00,,,0.00,,2013-04-04 21:32:00,
2013-04-04 16:43:00,46.0,30.0,-100.00,NW,325,16.0,22.0,56,0.00,,,0.00,,2013-04-04 21:43:00,
2013-04-04 16:52:00,45.0,30.0,-100.00,NW,325,15.0,22.0,54,0.00,,,0.00,,2013-04-04 21:52:00,
2013-04-04 17:03:00,45.0,30.0,-100.00,NNW,340,17.0,21.0,55,0.00,,,0.00,,2013-04-04 22:03:00,
2013-04-04 17:12:00,45.0,30.0,-100.00,NNW,330,15.0,21.0,56,0.00,,,0.00,,2013-04-04 22:12:00,
2013-04-04 17:23:00,45.0,30.0,-100.00,North,355,17.0,21.0,55,0.00,,,0.00,,2013-04-04 22:23:00,
2013-04-04 17:33:00,45.0,30.0,-100.00,NW,325,13.0,18.0,55,0.00,,,0.00,,2013-04-04 22:33:00,
2013-04-04 17:42:00,45.0,30.0,-100.00,NNW,335,14.0,18.0,55,0.00,,,0.00,,2013-04-04 22:42:00,
2013-04-04 17:52:00,44.0,30.0,-100.00,NW,325,11.0,17.0,55,0.00,,,0.00,,2013-04-04 22:52:00,
2013-04-04 18:02:00,44.0,30.0,-100.00,NNW,345,12.0,17.0,56,0.00,,,0.00,,2013-04-04 23:02:00,
2013-04-04 18:12:00,44.0,30.0,-100.00,North,350,13.0,17.0,56,0.00,,,0.00,,2013-04-04 23:12:00,
2013-04-04 18:22:00,44.0,30.0,-100.00,NNW,330,11.0,16.0,57,0.00,,,0.00,,2013-04-04 23:22:00,
2013-04-04 18:32:00,44.0,30.0,-100.00,NNW,340,11.0,19.0,57,0.00,,,0.00,,2013-04-04 23:32:00,
2013-04-04 18:42:00,44.0,30.0,-100.00,NW,325,12.0,17.0,58,0.00,,,0.00,,2013-04-04 23:42:00,
2013-04-04 18:52:00,43.0,30.0,-100.00,NNW,330,13.0,17.0,58,0.00,,,0.00,,2013-04-04 23:52:00,
2013-04-04 19:02:00,43.0,28.0,-100.00,NW,320,10.0,16.0,58,0.00,,,0.00,,2013-04-05 00:02:00,
2013-04-04 19:12:00,42.0,30.0,-100.00,NNW,335,13.0,16.0,60,0.00,,,0.00,,2013-04-05 00:12:00,
2013-04-04 19:22:00,42.0,28.0,-100.00,NNW,330,11.0,16.0,60,0.00,,,0.00,,2013-04-05 00:22:00,
2013-04-04 19:32:00,41.0,28.0,-100.00,NW,315,11.0,17.0,61,0.00,,,0.00,,2013-04-05 00:32:00,
2013-04-04 19:42:00,40.0,28.0,-100.00,NW,320,12.0,19.0,64,0.00,,,0.00,,2013-04-05 00:42:00,
2013-04-04 19:52:00,39.0,28.0,-100.00,NW,325,11.0,17.0,65,0.00,,,0.00,,2013-04-05 00:52:00,
2013-04-04 20:02:00,38.0,28.0,-100.00,NW,320,9.0,15.0,67,0.00,,,0.00,,2013-04-05 01:02:00,
2013-04-04 20:12:00,38.0,28.0,-100.00,NW,320,11.0,14.0,65,0.00,,,0.00,,2013-04-05 01:12:00,
2013-04-04 20:22:00,38.0,27.0,-100.00,NW,320,9.0,14.0,66,0.00,,,0.00,,2013-04-05 01:22:00,
2013-04-04 20:32:00,37.0,27.0,-100.00,NW,325,9.0,12.0,67,0.00,,,0.00,,2013-04-05 01:32:00,
2013-04-04 20:42:00,36.0,27.0,-100.00,NW,315,7.0,10.0,68,0.00,,,0.00,,2013-04-05 01:42:00,
2013-04-04 20:52:00,35.0,27.0,-100.00,NW,315,8.0,11.0,72,0.00,,,0.00,,2013-04-05 01:52:00,
2013-04-04 21:03:00,35.0,28.0,-100.00,NW,305,7.0,9.0,75,0.00,,,0.00,,2013-04-05 02:03:00,
2013-04-04 21:12:00,35.0,28.0,-100.00,NW,320,8.0,10.0,76,0.00,,,0.00,,2013-04-05 02:12:00,
2013-04-04 21:22:00,35.0,28.0,-100.00,NW,315,8.0,10.0,79,0.00,,,0.00,,2013-04-05 02:22:00,
2013-04-04 21:32:00,35.0,28.0,-100.00,NW,315,8.0,12.0,80,0.00,,,0.00,,2013-04-05 02:32:00,
2013-04-04 21:42:00,34.0,28.0,-100.00,NW,320,7.0,11.0,82,0.00,,,0.00,,2013-04-05 02:42:00,
2013-04-04 21:52:00,35.0,28.0,-100.00,NW,325,9.0,12.0,79,0.00,,,0.00,,2013-04-05 02:52:00,
2013-04-04 22:02:00,34.0,28.0,-100.00,NNW,330,9.0,12.0,77,0.00,,,0.00,,2013-04-05 03:02:00,
2013-04-04 22:12:00,34.0,28.0,-100.00,NW,325,8.0,11.0,76,0.00,,,0.00,,2013-04-05 03:12:00,
2013-04-04 22:22:00,34.0,28.0,-100.00,NW,325,9.0,11.0,76,0.00,,,0.00,,2013-04-05 03:22:00,
2013-04-04 22:32:00,34.0,27.0,-100.00,NW,325,7.0,11.0,77,0.00,,,0.00,,2013-04-05 03:32:00,
2013-04-04 22:43:00,34.0,27.0,-100.00,NW,320,7.0,11.0,77,0.00,,,0.00,,2013-04-05 03:43:00,
2013-04-04 22:53:00,33.0,28.0,-100.00,NW,315,7.0,11.0,80,0.00,,,0.00,,2013-04-05 03:53:00,
2013-04-04 23:02:00,33.0,28.0,-100.00,NNW,330,7.0,10.0,80,0.00,,,0.00,,2013-04-05 04:02:00,
2013-04-04 23:12:00,33.0,28.0,-100.00,NW,325,7.0,11.0,79,0.00,,,0.00,,2013-04-05 04:12:00,
2013-04-04 23:22:00,33.0,27.0,-100.00,NNW,330,7.0,9.0,80,0.00,,,0.00,,2013-04-05 04:22:00,
2013-04-04 23:32:00,33.0,28.0,-100.00,NW,305,6.0,9.0,81,0.00,,,0.00,,2013-04-05 04:32:00,
2013-04-04 23:42:00,32.0,28.0,-100.00,WNW,300,7.0,8.0,85,0.00,,,0.00,,2013-04-05 04:42:00,
2013-04-04 23:52:00,32.0,28.0,-100.00,NW,310,7.0,8.0,87,0.00,,,0.00,,2013-04-05 04:52:00,